[[{"header":{"parameterUnit":"m.s-1","parameterCategory":2,"la1":30.2992,"la2":30.254,"lo1":-89.0895,"lo2":-89.0443,"dy":0.0025,"dx":0.0025,"nx":19,"ny":19,"refTime":"2026-04-25T09:00:00:Z","depth":"0","parameterNumber":2,"parameterNumberName":"U-component_of_CURRENTS"},"data":[0,0,0,-0.0655,-0.0654,-0.0629,-0.0629,-0.0647,-0.0648,0,0,0,0,0,0,0,0,0,0,0,-0.0674,-0.0674,-0.0655,-0.0654,-0.0629,-0.0629,-0.0647,-0.0648,0,0,0,0,0,0,0,0,0,0,0,-0.0675,-0.0674,-0.0674,-0.0654,-0.0629,-0.0629,-0.0647,-0.0656,0,0,0,0,0,0,0,0,0,0,-0.0675,-0.0695,-0.0674,-0.0674,-0.0654,-0.0629,-0.0629,-0.0656,-0.0655,-0.067,0,-0.0666,0,-0.0649,-0.0649,-0.0649,0,0,0,-0.0663,-0.0695,-0.0672,-0.0674,-0.0653,-0.0629,-0.0643,-0.0655,-0.0655,-0.0669,-0.0666,-0.0666,-0.065,-0.0649,-0.0649,-0.0697,-0.0697,0,0,-0.0665,-0.0687,-0.0672,-0.0672,-0.0648,-0.0644,-0.0642,-0.0654,-0.0665,-0.0666,-0.0666,-0.065,-0.0649,-0.0649,-0.0697,-0.0697,0,0,0,-0.0663,-0.0688,-0.0664,-0.0672,-0.0659,-0.0643,-0.0641,-0.0665,-0.0653,-0.0666,-0.065,-0.0649,-0.065,-0.0696,-0.0697,-0.0712,0,0,0,-0.0664,-0.0685,-0.0665,-0.068,-0.0658,-0.0657,-0.0652,-0.0652,-0.0652,-0.065,-0.0649,-0.065,-0.0696,-0.0697,-0.0711,-0.0708,0,0,0,-0.0675,-0.0687,-0.068,-0.0681,-0.0662,-0.0656,-0.0645,-0.0652,-0.0643,-0.0649,-0.065,-0.0696,-0.0696,-0.0709,-0.0706,-0.0687,0,0,0,-0.0703,-0.0713,-0.0681,-0.0686,-0.0662,-0.0656,-0.0645,-0.0649,-0.0656,-0.065,-0.0696,-0.0697,-0.0709,-0.0705,-0.0686,-0.0619,-0.0616,0,0,-0.073,-0.0717,-0.0716,-0.0687,-0.0683,-0.066,-0.0679,-0.0681,-0.0676,-0.0696,-0.0697,-0.0711,-0.0706,-0.0687,-0.0669,-0.0663,0,0,0,-0.0734,-0.0734,-0.0729,-0.0715,-0.0698,-0.0696,-0.0692,-0.0696,-0.071,-0.0681,-0.0724,-0.0721,-0.0708,-0.0667,-0.0664,-0.0651,-0.0701,-0.0701,-0.0701,-0.0811,-0.0775,-0.0775,-0.0739,-0.0737,-0.0728,-0.0734,-0.074,-0.0736,-0.0748,-0.0743,-0.0752,-0.0712,-0.0708,-0.0697,-0.076,-0.076,-0.076,-0.076,-0.084,-0.0818,-0.0796,-0.078,-0.0764,-0.0772,-0.0774,-0.0772,-0.0775,-0.0776,-0.0762,-0.0698,-0.0704,-0.0694,-0.0761,-0.0761,-0.0761,-0.0761,-0.0761,-0.0866,-0.0842,-0.0834,-0.0804,-0.0796,-0.0784,-0.0772,-0.0781,-0.078,-0.0776,-0.0705,-0.0704,-0.0683,-0.0759,-0.0759,-0.0759,-0.0759,-0.0759,-0.0759,-0.0874,-0.0861,-0.0843,-0.0819,-0.0798,-0.0778,-0.0763,-0.0749,-0.0718,-0.0709,-0.0708,-0.0685,-0.0751,-0.0737,-0.0757,-0.0758,-0.0758,-0.0758,-0.0758,-0.0841,-0.085,-0.0823,-0.0805,-0.0763,-0.0717,-0.0718,-0.0655,-0.0644,-0.0612,-0.0611,-0.0667,-0.0647,-0.0649,-0.0632,-0.0624,-0.0624,-0.0624,-0.0624,-0.0818,-0.0822,-0.0781,-0.0752,-0.0718,-0.0682,-0.0598,-0.0569,-0.0547,-0.0532,-0.0552,-0.0547,-0.0553,-0.0528,-0.0533,-0.0515,-0.0477,-0.0477,-0.0477,-0.0775,-0.0776,-0.0736,-0.0724,-0.0685,-0.0628,-0.0532,-0.05,-0.048,-0.0473,-0.0551,-0.0557,-0.0555,-0.0565,-0.0531,-0.0539,-0.0511,0,0]},{"header":{"parameterUnit":"m.s-1","parameterCategory":2,"la1":30.2992,"la2":30.254,"lo1":-89.0895,"lo2":-89.0443,"dy":0.0025,"dx":0.0025,"nx":19,"ny":19,"refTime":"2026-04-25T09:00:00:Z","depth":"0","parameterNumber":3,"parameterNumberName":"V-component_of_CURRENTS"},"data":[0,0,0,-0.1018,-0.1017,-0.0969,-0.0969,-0.0863,-0.0862,0,0,0,0,0,0,0,0,0,0,0,-0.1034,-0.1034,-0.1018,-0.1017,-0.0969,-0.0969,-0.0863,-0.0862,0,0,0,0,0,0,0,0,0,0,0,-0.1034,-0.1034,-0.1034,-0.1017,-0.0969,-0.0969,-0.0863,-0.0907,0,0,0,0,0,0,0,0,0,0,-0.0959,-0.0984,-0.1034,-0.1034,-0.1017,-0.0969,-0.0969,-0.091,-0.0905,-0.0875,0,-0.0877,0,-0.0871,-0.0855,-0.0854,0,0,0,-0.1005,-0.0989,-0.0978,-0.1034,-0.1017,-0.0969,-0.0987,-0.0907,-0.0901,-0.0868,-0.0875,-0.0871,-0.0869,-0.0854,-0.0853,-0.0809,-0.0809,0,0,-0.1008,-0.1018,-0.0983,-0.0975,-0.1014,-0.0989,-0.0986,-0.0904,-0.0899,-0.0875,-0.0869,-0.0867,-0.0853,-0.0852,-0.0809,-0.0809,0,0,0,-0.1024,-0.102,-0.1012,-0.0979,-0.0976,-0.0988,-0.0984,-0.0903,-0.0901,-0.0868,-0.0866,-0.0853,-0.0851,-0.0808,-0.0809,-0.0842,0,0,0,-0.1025,-0.103,-0.1014,-0.1018,-0.0978,-0.0945,-0.0985,-0.0907,-0.0898,-0.0866,-0.0853,-0.085,-0.0808,-0.0809,-0.0841,-0.0851,0,0,0,-0.1035,-0.1031,-0.103,-0.1019,-0.1004,-0.0946,-0.094,-0.0905,-0.0896,-0.0854,-0.085,-0.0808,-0.0809,-0.0839,-0.0848,-0.0856,0,0,0,-0.1041,-0.104,-0.103,-0.1029,-0.1005,-0.0987,-0.094,-0.0914,-0.0883,-0.0852,-0.0808,-0.0809,-0.0839,-0.0847,-0.0854,-0.0904,-0.0914,0,0,-0.1042,-0.104,-0.1041,-0.1031,-0.1023,-0.0992,-0.098,-0.0919,-0.0883,-0.0829,-0.0828,-0.0841,-0.0848,-0.0855,-0.0946,-0.0954,0,0,0,-0.1043,-0.1042,-0.104,-0.1033,-0.1019,-0.1,-0.0954,-0.0934,-0.0889,-0.0871,-0.0847,-0.085,-0.0853,-0.0881,-0.0888,-0.0714,-0.0812,-0.0812,-0.0812,-0.1036,-0.1038,-0.1038,-0.1036,-0.1027,-0.1002,-0.0986,-0.0949,-0.0911,-0.0906,-0.0881,-0.0915,-0.0946,-0.0952,-0.0772,-0.0888,-0.0889,-0.0889,-0.0889,-0.1034,-0.1027,-0.1039,-0.1041,-0.1033,-0.1021,-0.0994,-0.0976,-0.0947,-0.0919,-0.0921,-0.092,-0.0961,-0.0767,-0.0891,-0.0891,-0.089,-0.089,-0.089,-0.1018,-0.1013,-0.1031,-0.1041,-0.1039,-0.1029,-0.1026,-0.1001,-0.0972,-0.0974,-0.0986,-0.0986,-0.0809,-0.0968,-0.0968,-0.0968,-0.0968,-0.0968,-0.0968,-0.0983,-0.1001,-0.1019,-0.1035,-0.1043,-0.1048,-0.1037,-0.1036,-0.1036,-0.1025,-0.1025,-0.0804,-0.0939,-0.0929,-0.097,-0.0969,-0.0969,-0.0969,-0.0969,-0.094,-0.0967,-0.0995,-0.1015,-0.1047,-0.1074,-0.1073,-0.1105,-0.1098,-0.1114,-0.0876,-0.1051,-0.1041,-0.1036,-0.1029,-0.1092,-0.1092,-0.1092,-0.1092,-0.0909,-0.0925,-0.0973,-0.1012,-0.1047,-0.1081,-0.1144,-0.1183,-0.1045,-0.0933,-0.0825,-0.0793,-0.0796,-0.0767,-0.0768,-0.0753,-0.0745,-0.0744,-0.0743,-0.0882,-0.0909,-0.0936,-0.0998,-0.1044,-0.1101,-0.1182,-0.1251,-0.0985,-0.0706,-0.0566,-0.0581,-0.0509,-0.0527,-0.0463,-0.0478,-0.0449,0,0]}],[{"header":{"parameterUnit":"m.s-1","parameterCategory":2,"la1":30.2992,"la2":30.254,"lo1":-89.0895,"lo2":-89.0443,"dy":0.0025,"dx":0.0025,"nx":19,"ny":19,"refTime":"2026-04-25T09:00:00:Z","depth":"2","parameterNumber":2,"parameterNumberName":"U-component_of_CURRENTS"},"data":[0,0,0,-0.1138,-0.114,-0.1177,-0.1177,-0.1084,-0.1083,0,0,0,0,0,0,0,0,0,0,0,-0.1116,-0.1116,-0.1138,-0.114,-0.1177,-0.1177,-0.1084,-0.1083,0,0,0,0,0,0,0,0,0,0,0,-0.1116,-0.1116,-0.1117,-0.114,-0.1177,-0.1177,-0.1084,-0.1088,0,0,0,0,0,0,0,0,0,0,-0.1068,-0.1055,-0.1116,-0.1117,-0.114,-0.1177,-0.1177,-0.1089,-0.1087,-0.103,0,-0.1043,0,-0.1067,-0.1074,-0.1074,0,0,0,-0.1126,-0.1057,-0.1088,-0.1117,-0.1141,-0.1177,-0.1156,-0.1089,-0.1087,-0.1027,-0.1042,-0.104,-0.1066,-0.1073,-0.1073,-0.1016,-0.1016,0,0,-0.1124,-0.1097,-0.109,-0.1087,-0.1156,-0.1155,-0.1158,-0.1089,-0.1073,-0.1042,-0.1039,-0.1064,-0.1073,-0.1072,-0.1016,-0.1016,0,0,0,-0.1127,-0.1095,-0.113,-0.1089,-0.1111,-0.1157,-0.116,-0.1076,-0.1094,-0.1038,-0.1063,-0.1072,-0.107,-0.1015,-0.1016,-0.1041,0,0,0,-0.1125,-0.1099,-0.1129,-0.111,-0.1114,-0.111,-0.1147,-0.1098,-0.1092,-0.1063,-0.1072,-0.1069,-0.1015,-0.1015,-0.1039,-0.1037,0,0,0,-0.1113,-0.1097,-0.1109,-0.1109,-0.1135,-0.1113,-0.1126,-0.1098,-0.1107,-0.1074,-0.1069,-0.1015,-0.1015,-0.1038,-0.1036,-0.1024,0,0,0,-0.1074,-0.1086,-0.1108,-0.1112,-0.1135,-0.1148,-0.1127,-0.1117,-0.1092,-0.1071,-0.1015,-0.1016,-0.1038,-0.1035,-0.1023,-0.0966,-0.0964,0,0,-0.1071,-0.1084,-0.1087,-0.1109,-0.1119,-0.1142,-0.1139,-0.1102,-0.1083,-0.1024,-0.1024,-0.104,-0.1035,-0.1024,-0.1007,-0.1004,0,0,0,-0.1075,-0.1078,-0.1081,-0.1092,-0.1109,-0.1126,-0.1114,-0.111,-0.109,-0.1076,-0.1047,-0.1044,-0.1035,-0.1,-0.0998,-0.1019,-0.1019,-0.1019,-0.1019,-0.1024,-0.1049,-0.1048,-0.1079,-0.1086,-0.1108,-0.1113,-0.1109,-0.1085,-0.1096,-0.107,-0.1086,-0.105,-0.1047,-0.1084,-0.1084,-0.1084,-0.1084,-0.1084,-0.1011,-0.1016,-0.1033,-0.105,-0.1075,-0.108,-0.1102,-0.1111,-0.1102,-0.1101,-0.1092,-0.1036,-0.1046,-0.1086,-0.1086,-0.1086,-0.1086,-0.1085,-0.1085,-0.098,-0.099,-0.1003,-0.1024,-0.1042,-0.1073,-0.1075,-0.1106,-0.111,-0.1113,-0.1056,-0.1054,-0.108,-0.1108,-0.1107,-0.1107,-0.1107,-0.1107,-0.1107,-0.0949,-0.0965,-0.0967,-0.0997,-0.1006,-0.1026,-0.106,-0.1049,-0.1054,-0.1067,-0.1067,-0.1093,-0.1092,-0.1081,-0.1107,-0.1107,-0.1107,-0.1107,-0.1107,-0.0922,-0.093,-0.0929,-0.0935,-0.0947,-0.0917,-0.0968,-0.0939,-0.0952,-0.0933,-0.1033,-0.1035,-0.1012,-0.1013,-0.1001,-0.1004,-0.1004,-0.1004,-0.1004,-0.0891,-0.09,-0.0882,-0.0875,-0.086,-0.0862,-0.081,-0.0887,-0.0943,-0.1024,-0.1024,-0.1023,-0.1025,-0.1004,-0.1006,-0.0993,-0.0994,-0.0995,-0.0995,-0.0858,-0.0861,-0.0832,-0.0833,-0.0813,-0.0764,-0.0735,-0.0929,-0.1081,-0.1001,-0.1087,-0.099,-0.0987,-0.0992,-0.0957,-0.096,-0.0938,0,0]},{"header":{"parameterUnit":"m.s-1","parameterCategory":2,"la1":30.2992,"la2":30.254,"lo1":-89.0895,"lo2":-89.0443,"dy":0.0025,"dx":0.0025,"nx":19,"ny":19,"refTime":"2026-04-25T09:00:00:Z","depth":"2","parameterNumber":3,"parameterNumberName":"V-component_of_CURRENTS"},"data":[0,0,0,-0.0004,-0.0003,0.006,0.0061,0.0204,0.0205,0,0,0,0,0,0,0,0,0,0,0,-0.0044,-0.0044,-0.0004,-0.0003,0.006,0.0061,0.0204,0.0205,0,0,0,0,0,0,0,0,0,0,0,-0.0043,-0.0044,-0.0045,-0.0003,0.006,0.0061,0.0203,0.0145,0,0,0,0,0,0,0,0,0,0,0.0078,0.0013,-0.0044,-0.0045,-0.0003,0.006,0.0061,0.0142,0.0149,0.0187,0,0.0165,0,0.0189,0.0214,0.0215,0,0,0,0.0018,0.0006,0.0034,-0.0045,-0.0002,0.006,0.0038,0.0146,0.0153,0.0196,0.0167,0.0173,0.0191,0.0215,0.0216,0.0301,0.0301,0,0,0.0015,-0.0031,0.0028,0.0038,-0.0025,0.0036,0.0039,0.015,0.0137,0.0168,0.0176,0.0193,0.0216,0.0217,0.0301,0.0301,0,0,0,-0.001,-0.0034,-0.0009,0.0032,0.0038,0.0037,0.0041,0.0132,0.0141,0.0178,0.0195,0.0217,0.0219,0.0301,0.0301,0.015,0,0,0,-0.0011,-0.0048,-0.0012,-0.0037,0.0035,0.0075,0.002,0.0133,0.0147,0.0194,0.0217,0.022,0.0302,0.0301,0.0154,0.0112,0,0,0,-0.004,-0.0051,-0.0054,-0.004,-0.0019,0.0073,0.009,0.0136,0.0157,0.0215,0.022,0.0302,0.0301,0.0158,0.0118,0.0096,0,0,0,-0.007,-0.0098,-0.0056,-0.0077,-0.002,0.0023,0.0089,0.0117,0.0155,0.0218,0.0302,0.0301,0.0159,0.0122,0.0099,0.0098,0.0081,0,0,-0.0114,-0.0106,-0.0111,-0.0071,-0.0059,0.0018,0.0033,0.0099,0.0173,0.0274,0.0276,0.0153,0.0119,0.0096,0.0087,0.007,0,0,0,-0.0128,-0.0142,-0.0128,-0.0118,-0.0066,-0.0037,0.0038,0.0081,0.0135,0.0192,0.0192,0.0177,0.0166,0.0174,0.0161,0.03,0.03,0.03,0.0301,-0.0258,-0.0208,-0.0218,-0.0165,-0.0148,-0.0073,-0.0041,0.0036,0.0093,0.0089,0.008,0.0001,0.0007,-0.0002,0.0102,0.0101,0.0101,0.01,0.01,-0.0318,-0.0321,-0.0284,-0.0282,-0.0243,-0.0236,-0.0133,-0.0099,-0.0047,0.0007,0.0002,0.0049,-0.0026,0.0089,0.0091,0.0093,0.0094,0.0095,0.0095,-0.0397,-0.0388,-0.0392,-0.0387,-0.0403,-0.035,-0.0324,-0.0253,-0.0177,-0.0186,-0.014,-0.0136,-0.0087,-0.0206,-0.0206,-0.0206,-0.0207,-0.0207,-0.0207,-0.0476,-0.0464,-0.0489,-0.0486,-0.0506,-0.0511,-0.0439,-0.0394,-0.0333,-0.0271,-0.027,-0.01,-0.009,-0.0101,-0.0212,-0.0211,-0.021,-0.021,-0.021,-0.0536,-0.0544,-0.0564,-0.0584,-0.0587,-0.0587,-0.0531,-0.0472,-0.043,-0.0408,-0.0288,-0.0285,-0.0221,-0.0208,-0.0218,-0.0353,-0.0353,-0.0353,-0.0353,-0.0589,-0.0586,-0.0616,-0.0625,-0.0622,-0.0607,-0.059,-0.0434,-0.0311,-0.0141,-0.0149,-0.0084,-0.0086,-0.0006,0.0002,-0.0,-0.0078,-0.0077,-0.0076,-0.0614,-0.0619,-0.0646,-0.0643,-0.0631,-0.0621,-0.0616,-0.031,0.0121,-0.0054,0.0019,-0.0358,-0.0284,-0.0277,-0.0167,-0.015,-0.0157,0,0]}],[{"header":{"parameterUnit":"m.s-1","parameterCategory":2,"la1":30.2992,"la2":30.254,"lo1":-89.0895,"lo2":-89.0443,"dy":0.0025,"dx":0.0025,"nx":19,"ny":19,"refTime":"2026-04-25T09:00:00:Z","depth":"4","parameterNumber":2,"parameterNumberName":"U-component_of_CURRENTS"},"data":[0,0,0,-0.0523,-0.0525,-0.0699,-0.07,-0.0891,-0.0892,0,0,0,0,0,0,0,0,0,0,0,-0.0469,-0.0469,-0.0523,-0.0525,-0.0699,-0.07,-0.0891,-0.0892,0,0,0,0,0,0,0,0,0,0,0,-0.0469,-0.0469,-0.047,-0.0526,-0.0698,-0.07,-0.0891,-0.0779,0,0,0,0,0,0,0,0,0,0,-0.0619,-0.057,-0.0469,-0.047,-0.0526,-0.0698,-0.07,-0.0774,-0.0786,-0.0789,0,-0.0792,0,-0.0822,-0.09,-0.0901,0,0,0,-0.0572,-0.0561,-0.0583,-0.047,-0.0527,-0.0698,-0.0634,-0.0781,-0.0794,-0.0804,-0.0794,-0.0802,-0.0825,-0.0901,-0.0901,-0.1009,-0.1009,0,0,-0.0562,-0.0533,-0.0574,-0.059,-0.0539,-0.0628,-0.0638,-0.079,-0.0802,-0.0795,-0.0807,-0.0828,-0.0902,-0.0903,-0.1008,-0.1009,0,0,0,-0.0503,-0.0526,-0.0548,-0.0582,-0.0602,-0.0632,-0.0644,-0.0797,-0.0796,-0.0809,-0.083,-0.0902,-0.0904,-0.1008,-0.1009,-0.1013,0,0,0,-0.05,-0.0488,-0.0542,-0.0532,-0.0598,-0.0708,-0.0647,-0.0787,-0.0804,-0.0829,-0.0902,-0.0905,-0.1008,-0.1008,-0.1012,-0.1008,0,0,0,-0.0467,-0.0486,-0.049,-0.0529,-0.058,-0.0706,-0.0718,-0.0792,-0.0814,-0.0901,-0.0905,-0.1008,-0.1008,-0.1011,-0.1007,-0.0967,0,0,0,-0.0455,-0.048,-0.0489,-0.0549,-0.0577,-0.0679,-0.0718,-0.0821,-0.0895,-0.0903,-0.1008,-0.1009,-0.1011,-0.1006,-0.0967,-0.0803,0,0,0,-0.0484,-0.0483,-0.0526,-0.0538,-0.0617,-0.0661,-0.0788,-0.0896,-0.0904,-0.0963,-0.0967,-0.1012,-0.1007,-0.0967,-0.0848,0,0,0,0,-0.0537,-0.0561,-0.0579,-0.0646,-0.0699,-0.0771,-0.0878,-0.0897,-0.0965,-0.0941,-0.1026,-0.1022,-0.0996,-0.0903,-0.1012,-0.1012,-0.1012,-0.1012,-0.1012,-0.0524,-0.0597,-0.0669,-0.0747,-0.0801,-0.0888,-0.0927,-0.0977,-0.0997,-0.1008,-0.1036,-0.1023,-0.0928,-0.1051,-0.1051,-0.1051,-0.1051,-0.1051,-0.1051,-0.0576,-0.0628,-0.0736,-0.0834,-0.0899,-0.101,-0.1034,-0.104,-0.1029,-0.1046,-0.102,-0.0929,-0.1052,-0.1052,-0.1051,-0.1051,-0.1051,-0.1051,-0.1051,-0.0553,-0.0589,-0.0691,-0.0824,-0.0951,-0.1042,-0.1012,-0.1034,-0.1043,-0.101,-0.0893,-0.1012,-0.0997,-0.1002,-0.1002,-0.1001,-0.1001,-0.1001,-0.1001,-0.0466,-0.0572,-0.0615,-0.0773,-0.0832,-0.0887,-0.0953,-0.0909,-0.0953,-0.0874,-0.1014,-0.1006,-0.1007,-0.0994,-0.0998,-0.0999,-0.0999,-0.0999,-0.1,-0.0417,-0.0426,-0.0468,-0.0514,-0.0599,-0.0629,-0.0722,-0.0728,-0.0659,-0.0645,-0.0778,-0.079,-0.0762,-0.0769,-0.0746,-0.0677,-0.0675,-0.0673,0,-0.0315,-0.0345,-0.0331,-0.0324,-0.0304,-0.0444,-0.0356,-0.04,-0.0518,-0.0509,-0.0639,-0.0787,-0.0796,-0.0764,-0.0767,-0.0738,0,0,0,-0.0244,-0.0253,-0.0199,-0.0216,-0.0202,-0.0229,-0.0327,-0.033,-0.0516,-0.0477,-0.0619,-0.0633,-0.0797,-0.099,-0.0975,-0.0977,-0.0953,0,0]},{"header":{"parameterUnit":"m.s-1","parameterCategory":2,"la1":30.2992,"la2":30.254,"lo1":-89.0895,"lo2":-89.0443,"dy":0.0025,"dx":0.0025,"nx":19,"ny":19,"refTime":"2026-04-25T09:00:00:Z","depth":"4","parameterNumber":3,"parameterNumberName":"V-component_of_CURRENTS"},"data":[0,0,0,0.0008,0.0006,-0.0028,-0.0028,0.0081,0.0082,0,0,0,0,0,0,0,0,0,0,0,0.0041,0.004,0.0009,0.0006,-0.0028,-0.0028,0.008,0.0082,0,0,0,0,0,0,0,0,0,0,0,0.0041,0.004,0.0039,0.0006,-0.0028,-0.0028,0.008,0.0077,0,0,0,0,0,0,0,0,0,0,0.0095,0.0098,0.004,0.0039,0.0005,-0.0028,-0.0028,0.0076,0.0077,0.0128,0,0.0107,0,0.0075,0.0089,0.0089,0,0,0,0.0043,0.0096,0.0068,0.0039,0.0005,-0.0029,-0.0002,0.0076,0.0078,0.0131,0.0108,0.011,0.0076,0.009,0.009,0.0182,0.0182,0,0,0.0045,0.0061,0.0066,0.0069,-0.0022,-0.0002,-0.0004,0.0076,0.0085,0.0108,0.0111,0.0078,0.009,0.0091,0.0182,0.0182,0,0,0,0.0026,0.0062,0.0031,0.0066,0.0035,-0.0003,-0.0006,0.0082,0.0065,0.0112,0.008,0.0091,0.0092,0.0182,0.0182,0.0145,0,0,0,0.0029,0.0048,0.0031,0.0044,0.0032,0.0037,-0.0001,0.0061,0.0067,0.0079,0.0091,0.0093,0.0182,0.0182,0.0145,0.0124,0,0,0,0.0045,0.005,0.0035,0.0045,0.0008,0.0034,0.0024,0.0061,0.0047,0.0089,0.0094,0.0181,0.0182,0.0146,0.0125,0.0198,0,0,0,0.0079,0.0032,0.0036,-0.0025,0.0007,-0.0039,0.0023,0.0017,0.0045,0.0092,0.0182,0.0182,0.0146,0.0126,0.0198,0.0187,0,0,0,0.003,0.0027,-0.0014,-0.0014,-0.0095,-0.0031,-0.0032,0.0035,0.0079,0.0173,0.0174,0.0145,0.0125,0.0198,0.0212,0,0,0,0,-0.0024,-0.0047,-0.0074,-0.0116,-0.0139,-0.011,-0.0042,0.0019,0.0102,0.0089,0.0165,0.0154,0.0201,0.0193,0.0184,0.0184,0.0184,0.0184,0.0184,-0.0028,-0.0074,-0.0136,-0.0177,-0.0186,-0.0135,-0.0085,0.0022,0.008,0.0119,0.0138,0.0184,0.0173,0.0158,0.0158,0.0158,0.0158,0.0158,0.0157,-0.0094,-0.0128,-0.0162,-0.0217,-0.0195,-0.0147,-0.0063,-0.0001,0.0123,0.0136,0.0185,0.0169,0.0154,0.0155,0.0155,0.0156,0.0156,0.0156,0.0156,-0.0069,-0.0098,-0.0119,-0.0187,-0.0171,-0.0124,-0.0088,-0.0024,0.0105,0.012,0.0198,0.0189,0.018,0.0185,0.0185,0.0186,0.0186,0.0186,0.0186,-0.0024,-0.0071,-0.0095,-0.0157,-0.0169,-0.0155,-0.0096,-0.0026,0.0083,0.0165,0.0146,0.0195,0.0194,0.0185,0.0189,0.0189,0.0188,0.0188,0.0188,-0.0028,-0.0014,-0.0071,-0.0098,-0.0186,-0.0204,-0.0164,0.0007,0.0105,0.0229,0.0214,0.0212,0.0241,0.024,0.0233,0.0252,0.0252,0.0252,0,0.0002,-0.0012,-0.0056,-0.0133,-0.0209,-0.0247,-0.0135,-0.0028,0.0139,0.0137,0.0126,0.0099,0.0101,0.0122,0.0122,0.0107,0,0,0,-0.0013,-0.0009,-0.0032,-0.0114,-0.0223,-0.0173,-0.0104,-0.002,0.0084,0.0215,0.025,0.0251,0.0157,0.0199,0.0241,0.0239,0.0228,0,0]}]]